STARLINK-3336 (50818 NORAD) Tracking and Keplerian Element Data

This shows tracking and keplerian element data for the satellite.

Feedback or suggestion? Click here.




ElementValue
Catalog50818
NameSTARLINK-3336
Epoch Orbit130
Epoch Day140.58334491
Epoch Year2022
RAAN285.0626
Inclination53.2155
Eccentricity0.0002112
Argument of Perigee30.4539
Mean Anonmoly16.0534
Mean Motion15.08876888
Decay Rate-0.0006518
L11 50818U 22001R 22140.58334491 -.00065180 00000+0 -41103-2 0 9995
L22 50818 53.2155 285.0626 0002112 30.4539 16.0534 15.08876888 1306

Live tracking and technical data element details for STARLINK-3336 (NORAD 50818). STARLINK-3336 can be tracked NOW for your location showing map with azimuth and elevation plus other details from your city location.

Track the satellite on the map from your city or location and see movement details for azimuth, elevation, latitude, longitude, range, height, and movement on the map or in text.







IsCatalogInMostPopularTable: catalog: 50818, numindb: 19
Update: records affected: 1



GetName: 50818 STARLINK-3336

Hit Count: updated at: Mon, 23 May 2022 20:15:36 GMT